Frederick, OK

9:49 AM CDT on September 19, 2017 (GMT -0500)
Frederick Municipal

Weather History for KFDR - November, 2012

Change the Weather History Date:

Thursday, November 1, 2012

  Actual Average (KLTS) Record (KLTS)
Temperature  
Mean Temperature 68 °F -  
Max Temperature 88 °F 64 °F 91 °F (2001)
Min Temperature 48 °F 43 °F 31 °F (2014)
Cooling Degree Days 3    
Growing Degree Days 18 (Base 50)    
Moisture  
Dew Point 40 °F    
Average Humidity 45    
Maximum Humidity 71    
Minimum Humidity 17    
Precipitation  
Precipitation 0.00 in - - ()
Sea Level Pressure  
Sea Level Pressure 29.92 in    
Wind  
Wind Speed 5 mph (SW)    
Max Wind Speed 14 mph    
Max Gust Speed 22 mph    
Visibility 10 miles    
Events      
Averages and records for this station are not official NWS values.
T = Trace of Precipitation, MM = Missing Value Source: NWS Daily Summary

Daily Weather History Graph

Daily Weather History Graph

Search for Another Location

Airport or City:

Trip Planner

Search our weather history database for the weather conditions in past years. The results will help you decide how hot, cold, wet, or windy it might be!

Date:

Astronomy

Nov. 01, 2012 Rise Set
Actual Time 7:56 AM CDT 6:42 PM CDT
Civil Twilight 7:30 AM CDT 7:08 PM CDT
Nautical Twilight 7:00 AM CDT 7:37 PM CDT
Astronomical Twilight 6:31 AM CDT 8:07 PM CDT
Moon 8:45 PM CDT (11/1) 10:24 AM CDT (11/1)
Length of Visible Light 11h 37m
Length of Day
10h 45m
Waning Gibbous, 93% of the Moon is Illuminated
Nov 1
Waning Gibbous
Nov 6
Last Quarter
Nov 13
New
Nov 20
First Quarter
Nov 28
Full

Hourly Weather History & Observations

Time (CDT) Temp. Dew Point Humidity Pressure Visibility Wind Dir Wind Speed Gust Speed Precip Events Conditions
12:53 AM 55.9 °F 41.0 °F 57% 29.97 in 10.0 mi Calm Calm - N/A   Clear
1:53 AM 55.0 °F 42.1 °F 62% 29.96 in 10.0 mi South 4.6 mph - N/A   Clear
2:53 AM 54.0 °F 41.0 °F 62% 29.96 in 10.0 mi SW 4.6 mph - N/A   Clear
3:53 AM 53.1 °F 42.1 °F 66% 29.94 in 10.0 mi WSW 4.6 mph - N/A   Clear
4:53 AM 52.0 °F 41.0 °F 66% 29.94 in 10.0 mi NW 4.6 mph - N/A   Clear
5:53 AM 51.1 °F 39.9 °F 66% 29.95 in 10.0 mi Calm Calm - N/A   Clear
6:53 AM 48.9 °F 39.0 °F 69% 29.96 in 10.0 mi Calm Calm - N/A   Clear
7:53 AM 48.0 °F 39.0 °F 71% 29.97 in 10.0 mi Calm Calm - N/A   Clear
8:53 AM 50.0 °F 41.0 °F 71% 29.99 in 10.0 mi Calm Calm - N/A   Clear
9:53 AM 59.0 °F 43.0 °F 55% 29.99 in 10.0 mi WNW 3.5 mph - N/A   Clear
11:53 AM 73.9 °F 41.0 °F 30% 29.97 in 10.0 mi West 10.4 mph - N/A   Clear
1:53 PM 84.9 °F 43.0 °F 23% 29.90 in 10.0 mi West 11.5 mph - N/A   Clear
2:53 PM 88.0 °F 42.1 °F 20% 29.87 in 10.0 mi WSW 13.8 mph 21.9 mph N/A   Clear
3:53 PM 87.1 °F 41.0 °F 20% 29.86 in 10.0 mi SW 9.2 mph - N/A   Clear
4:53 PM 88.0 °F 39.9 °F 18% 29.85 in 10.0 mi SW 13.8 mph - N/A   Clear
5:53 PM 86.0 °F 36.0 °F 17% 29.84 in 10.0 mi SW 11.5 mph - N/A   Clear
6:53 PM 75.9 °F 37.9 °F 25% 29.86 in 10.0 mi South 8.1 mph - N/A   Clear
7:53 PM 71.1 °F 39.0 °F 31% 29.87 in 10.0 mi South 9.2 mph - N/A   Clear
8:53 PM 68.0 °F 39.0 °F 35% 29.88 in 10.0 mi South 10.4 mph - N/A   Clear
9:53 PM 62.1 °F 39.0 °F 43% 29.88 in 10.0 mi SSW 9.2 mph - N/A   Clear
10:53 PM 61.0 °F 39.9 °F 46% 29.87 in 10.0 mi SSW 8.1 mph - N/A   Clear
11:53 PM 60.1 °F 39.9 °F 47% 29.87 in 10.0 mi SW 8.1 mph - N/A   Clear